DW3648 Weather Reports


time (UTC)temp
C
wind
direction
speed
KPH
gust
KPH
rain 1hr
cm
rain 24hr
cm
rain mn
cm
humidity
%
barometer
mb
20260508121652 20 306 6.4 19.3 0.00 0.00 0.00 44 1004.9
20260508120029 20 242 4.8 17.7 0.00 0.00 0.00 43 1005.0
20260508114532 21 256 4.8 14.5 0.00 0.00 0.00 46 1005.3
20260508113107 20 248 9.7 17.7 0.00 0.00 0.00 46 1005.6
20260508111601 20 186 1.6 14.5 0.00 0.00 0.00 46 1005.9
20260508110057 20 275 3.2 19.3 0.00 0.00 0.00 45 1006.0
20260508104551 19 174 6.4 27.4 0.00 0.00 0.00 48 1006.1
20260508103046 19 197 3.2 19.3 0.00 0.00 0.00 47 1006.1
20260508101542 18 227 8.0 22.5 0.00 0.00 0.00 47 1006.0
20260508100039 18 78 6.4 20.9 0.00 0.00 0.00 51 1006.0
20260508094538 18 179 6.4 11.3 0.00 0.00 0.00 52 1006.0
20260508093044 18 239 8.0 16.1 0.00 0.00 0.00 51 1005.9
20260508091546 18 163 1.6 8.0 0.00 0.00 0.00 55 1005.9
20260508084555 16 68 3.2 8.0 0.00 0.00 0.00 61 1006.0
20260508083106 15 355 1.6 8.0 0.00 0.00 0.00 66 1006.2
20260508081547 15 340 4.8 11.3 0.00 0.00 0.00 67 1006.3
20260508080045 14 329 4.8 14.5 0.00 0.00 0.00 69 1006.4
20260508074549 14 304 3.2 12.9 0.00 0.00 0.00 69 1006.4
20260508073039 14 279 6.4 16.1 0.00 0.00 0.00 70 1006.3
20260508071539 14 275 3.2 9.7 0.00 0.00 0.00 68 1006.0
20260508070035 13 102 0.0 8.0 0.00 0.00 0.00 72 1005.8
20260508064531 12 346 0.0 3.2 0.00 0.00 0.00 75 1005.6
20260508063029 12 24 1.6 8.0 0.00 0.00 0.00 76 1005.4
20260508061528 11 55 3.2 9.7 0.00 0.00 0.00 79 1005.9
20260508060026 11 92 1.6 4.8 0.00 0.00 0.00 80 1006.0
20260508054526 11 104 0.0 3.2 0.00 0.00 0.00 80 1006.1
20260508053055 11 101 1.6 8.0 0.00 0.00 0.00 78 1005.8
20260508051555 11 83 0.0 1.6 0.00 0.00 0.00 78 1005.9
20260508050024 11 96 0.0 0.0 0.00 0.00 0.00 79 1006.0
20260508044524 11 95 0.0 0.0 0.00 0.00 0.00 79 1006.0
20260508043106 11 95 0.0 1.6 0.00 0.00 0.00 80 1005.6
20260508041552 11 95 1.6 3.2 0.00 0.00 0.00 80 1005.7
20260508040051 11 96 0.0 4.8 0.00 0.00 0.00 80 1005.6
20260508034548 11 88 1.6 8.0 0.00 0.00 0.00 79 1005.5
20260508033048 11 5 0.0 3.2 0.00 0.00 0.00 78 1005.5
20260508031545 11 360 0.0 0.0 0.00 0.00 0.00 77 1005.5
20260508030046 11 91 0.0 1.6 0.00 0.00 0.00 79 1005.5
20260508024542 11 91 0.0 0.0 0.00 0.00 0.00 78 1004.9
20260508023042 11 90 0.0 4.8 0.00 0.00 0.00 78 1005.0
20260508021547 11 90 0.0 0.0 0.00 0.00 0.00 76 1005.0
20260508020036 12 94 1.6 8.0 0.00 0.00 0.00 76 1005.0
20260508014534 12 88 0.0 0.0 0.00 0.00 0.00 75 1005.1
20260508013038 12 88 0.0 0.0 0.00 0.00 0.00 73 1005.1
20260508011532 12 88 0.0 0.0 0.00 0.00 0.00 72 1005.4
20260508010027 12 88 0.0 0.0 0.00 0.00 0.00 71 1005.8
20260508004535 12 88 0.0 8.0 0.00 0.00 0.00 71 1006.1
20260508003025 12 227 3.2 8.0 0.00 0.00 0.00 72 1006.4
20260508001524 13 302 0.0 6.4 0.00 0.00 0.00 73 1006.6
20260508000023 12 252 0.0 0.0 0.00 0.00 0.00 74 1006.6
20260507234520 13 252 0.0 0.0 0.00 0.00 0.00 73 1006.5
20260507233033 13 252 1.6 6.4 0.00 0.00 0.00 72 1006.4
20260507231521 13 262 0.0 3.2 0.00 0.00 0.00 69 1006.3
20260507230019 13 273 1.6 6.4 0.00 0.00 0.00 70 1006.4
20260507224517 13 242 0.0 4.8 0.00 0.00 0.00 69 1006.4
20260507223016 13 242 1.6 6.4 0.00 0.00 0.00 68 1006.5
20260507221518 14 271 0.0 4.8 0.00 0.00 0.00 67 1006.6
20260507220015 15 273 1.6 4.8 0.00 0.00 0.00 66 1006.5
20260507214512 15 273 3.2 8.0 0.00 0.00 0.00 63 1006.6
20260507213012 15 260 4.8 9.7 0.00 0.00 0.00 62 1006.5
20260507211511 15 306 1.6 8.0 0.00 0.00 0.00 63 1006.4
20260507210030 15 286 1.6 11.3 0.00 0.00 0.00 63 1006.2
20260507204507 15 311 1.6 12.9 0.00 0.00 0.00 63 1005.9
20260507203009 15 330 3.2 12.9 0.00 0.00 0.00 62 1005.8
20260507201508 16 247 0.0 4.8 0.00 0.00 0.00 59 1005.4
20260507200006 16 254 0.0 6.4 0.00 0.00 0.00 58 1005.1
20260507194503 16 166 1.6 8.0 0.00 0.00 0.00 57 1004.8
20260507193004 16 115 3.2 9.7 0.00 0.00 0.00 56 1004.6
20260507191503 16 34 3.2 6.4 0.00 0.00 0.00 54 1004.3
20260507190004 17 223 1.6 12.9 0.00 0.00 0.00 54 1004.1
20260507184606 17 86 0.0 11.3 0.00 0.00 0.00 54 1004.0
20260507183059 17 109 1.6 11.3 0.00 0.00 0.00 53 1003.6
20260507181558 18 188 1.6 12.9 0.00 0.00 0.00 52 1003.6
20260507180105 20 190 0.0 6.4 0.00 0.00 0.00 51 1003.4
20260507174556 20 186 6.4 11.3 0.00 0.00 0.00 48 1003.4
20260507173055 20 173 3.2 11.3 0.00 0.00 0.00 46 1003.2
20260507171554 20 180 1.6 16.1 0.00 0.00 0.00 46 1003.2
20260507170054 20 268 1.6 12.9 0.00 0.00 0.00 45 1003.1
20260507164551 21 186 4.8 12.9 0.00 0.00 0.00 44 1003.0
20260507163050 21 286 1.6 14.5 0.00 0.00 0.00 44 1003.0
20260507161549 21 237 0.0 11.3 0.00 0.00 0.00 45 1002.9
20260507160049 21 307 3.2 17.7 0.00 0.00 0.00 45 1002.9
20260507154545 21 275 1.6 8.0 0.00 0.00 0.00 44 1003.0
20260507153045 20 178 4.8 14.5 0.00 0.00 0.00 47 1003.1
20260507151540 20 197 3.2 12.9 0.00 0.00 0.00 47 1003.2
20260507150040 19 259 4.8 22.5 0.00 0.00 0.00 50 1003.4
20260507144536 20 214 9.7 25.7 0.00 0.00 0.00 49 1003.3
20260507143037 20 224 3.2 11.3 0.00 0.00 0.00 48 1003.6
20260507141533 20 287 6.4 19.3 0.00 0.00 0.00 47 1003.7
20260507140032 19 257 4.8 16.1 0.00 0.00 0.00 46 1003.8
20260507134516 19 193 3.2 14.5 0.00 0.00 0.00 46 1003.9
20260507133018 18 247 3.2 14.5 0.00 0.00 0.00 51 1003.9
20260507131519 18 265 3.2 12.9 0.00 0.00 0.00 47 1003.9
20260507130027 20 148 6.4 17.7 0.00 0.00 0.00 44 1004.0
20260507124520 20 276 6.4 17.7 0.00 0.00 0.00 45 1004.1
20260507123013 19 236 3.2 19.3 0.00 0.00 0.00 45 1004.2